Regional Weather Roundup
Issued by NWS

Home | Current Version | Previous Version | Graphics & Text | Print | Product List | Glossary On
Versions: 1 2 3 4 5 6 7 8 9 10 11 12 13 14 15 16 17 18 19 20 21 22 23 24 25 26 27 28 29 30 31 32 33 34 35 36 37 38 39 40 41 42 43 44 45 46 47 48 49 50
000
ASUS45 KSLC 201410
RWRUT

UTAH REGIONAL WEATHER ROUNDUP
NATIONAL WEATHER SERVICE SALT LAKE CITY UT
800 AM MDT WED AUG 20 2014

UTZ001>011-023>025-201500-

NORTHERN UTAH

CITY           SKY/WX    TMP DP  RH WIND       PRES   REMARKS
HILL AFB       CLOUDY    62  55  78 S13       30.00R
LOGAN          SUNNY     59  52  77 NE6       29.97R
OGDEN          CLOUDY    63  55  75 S12       29.98R
PROVO AIRPORT  LGT RAIN  59  55  88 CALM      30.07R
SALT LAKE CITY CLOUDY    63  56  78 SE14      29.99R
VERNAL         CLOUDY    59  57  93 S3        30.04R
WENDOVER       PTSUNNY   64  48  55 E3        29.96R
HEBER CITY     DRIZZLE   55  54  94 CALM      30.08R
WEST JORDAN    CLOUDY    61  61 100 SE12G18   30.03R

$$

UTZ012>022-026-027-201500-

SOUTHERN UTAH

CITY           SKY/WX    TMP DP  RH WIND       PRES   REMARKS
BRYCE CANYON   SUNNY     48  45  89 CALM      30.21R
CEDAR CITY     MOSUNNY   60  52  74 VRB7      30.09R
MILFORD        MOSUNNY   60  54  80 S18       30.04R
MOAB/CYNLANDS  SUNNY     64  62  93 CALM      30.00R
PRICE          MOSUNNY   60  56  86 E3        30.08R
ST GEORGE      CLOUDY    66  54  63 SE7       29.99R

$$

REGIONAL REPORTS     COLORADO/ARIZONA

CITY           SKY/WX    TMP DP  RH WIND       PRES   REMARKS
CRAIG, CO      CLOUDY    59  55  87 CALM      30.08R
GRAND JUNCTION PTSUNNY   62  60  93 E5        30.03R
RIFLE          PTSUNNY   62  58  86 CALM      30.07R
MONTROSE       MOSUNNY   62  59  90 CALM      30.11R
CORTEZ         MOSUNNY   59  56  89 NE6       30.14R
PAGE, AZ       SUNNY     68  59  73 N5        30.04R
GRAND CANYON     N/A     50  48  93 CALM      30.22R
KINGMAN        MOSUNNY   63  57  81 CALM      30.01R
FLAGSTAFF      MOSUNNY   52  49  89 CALM      30.25R

$$

REGIONAL REPORTS    NEVADA/IDAHO/WYOMING

CITY           SKY/WX    TMP DP  RH WIND       PRES   REMARKS
LAS VEGAS, NV  MOSUNNY   75  53  46 S7        29.88R
ELY            PTSUNNY   56  49  77 S15       30.09S
ELKO           MOSUNNY   55  48  77 NE6       29.98R
POCATELLO, ID  SUNNY     56  54  93 N5        29.95R
BURLEY         PTSUNNY   56  51  84 CALM      29.91R
EVANSTON, WY   PTSUNNY   52  51  97 S8        30.11R
ROCK SPRINGS   PTSUNNY   55  50  83 SW6       30.07R

$$


USA.gov is the U.S. government's official web portal to all federal, state and local government web resources and services.